Location: Podia
(1.5569°N, 32.3469°E)
Time: 14:26:09
(UTC+00:00)

Gbstr 26 Del rocket - Pass Details

Date: 01 June 2020
Orbit: 493 x 1264 km, 51.8° (Epoch: 04 July)

Event Time Altitude Azimuth Distance (km) Brightness Sun altitude
Rises 17:43:51 0° 324° (NW) 4,130 8.2 -25.8°
Reaches altitude 10° 17:46:49 10° 324° (NW) 3,103 7.4 -26.5°
Maximum altitude 17:54:25 88° 237° (WSW) 1,059 4.0 -28.2°
Enters shadow 17:55:19 70° 152° (SSE) 1,094 4.0 -28.4°
